VK2ADG-2 Weather Reports


time (UTC)temp
C
wind
direction
speed
KPH
gust
KPH
rain 1hr
cm
rain 24hr
cm
rain mn
cm
humidity
%
barometer
mb
20260510192031 12 43 6.4 14.5 0.00 0.00 0.00 81 1029.1
20260510191029 12 51 8.0 20.9 0.00 0.00 0.00 81 1028.9
20260510190026 12 44 11.3 20.9 0.00 0.00 0.00 80 1028.9
20260510185023 12 47 9.7 22.5 0.00 0.00 0.00 80 1028.8
20260510184021 12 49 9.7 20.9 0.00 0.00 0.00 80 1028.6
20260510183039 12 50 9.7 17.7 0.00 0.00 0.00 80 1028.6
20260510182016 12 49 9.7 19.3 0.00 0.00 0.00 80 1028.4
20260510181034 12 50 11.3 17.7 0.00 0.00 0.00 80 1028.4
20260510180032 12 46 11.3 17.7 0.00 0.00 0.00 81 1028.3
20260510175030 12 46 9.7 17.7 0.00 0.00 0.00 81 1028.4
20260510174027 12 45 9.7 19.3 0.00 0.00 0.00 81 1028.4
20260510173025 12 51 9.7 16.1 0.00 0.00 0.00 82 1028.3
20260510172022 12 52 8.0 19.3 0.00 0.00 0.00 82 1028.2
20260510171020 12 43 8.0 14.5 0.00 0.00 0.00 81 1028.4
20260510170037 13 49 8.0 14.5 0.00 0.00 0.00 80 1028.3
20260510165035 13 59 6.4 14.5 0.00 0.00 0.00 80 1028.3
20260510164113 13 61 6.4 12.9 0.00 0.00 0.00 80 1028.4
20260510163030 13 73 9.7 17.7 0.00 0.00 0.00 80 1028.3
20260510162028 13 63 6.4 14.5 0.00 0.00 0.00 80 1028.4
20260510161025 13 72 8.0 14.5 0.00 0.00 0.00 80 1028.4
20260510160023 13 60 6.4 14.5 0.00 0.00 0.00 79 1028.5
20260510155020 13 62 6.4 12.9 0.00 0.00 0.00 79 1028.5
20260510154018 13 71 8.0 14.5 0.00 0.00 0.00 78 1028.3
20260510153016 13 81 6.4 12.9 0.00 0.00 0.00 77 1028.3
20260510152034 13 82 8.0 12.9 0.00 0.00 0.00 76 1028.5
20260510151031 13 88 8.0 14.5 0.00 0.00 0.00 76 1028.4
20260510150029 13 67 6.4 11.3 0.00 0.00 0.00 77 1028.5
20260510145026 13 65 3.2 9.7 0.00 0.00 0.00 78 1028.5
20260510144024 13 66 1.6 4.8 0.00 0.00 0.00 78 1028.5
20260510143021 13 86 3.2 6.4 0.00 0.00 0.00 79 1028.3
20260510142019 13 77 3.2 6.4 0.00 0.00 0.00 80 1028.4
20260510141017 13 66 1.6 3.2 0.00 0.00 0.00 79 1028.3
20260510140034 13 75 1.6 3.2 0.00 0.00 0.00 78 1028.2
20260510135052 13 92 3.2 4.8 0.00 0.00 0.00 78 1028.2
20260510134030 13 90 1.6 4.8 0.00 0.00 0.00 78 1028.2
20260510133047 13 105 3.2 4.8 0.00 0.00 0.00 76 1028.2
20260510132025 13 103 3.2 6.4 0.00 0.00 0.00 76 1028.2
20260510131023 13 102 3.2 6.4 0.00 0.00 0.00 76 1028.2
20260510130020 13 69 1.6 3.2 0.00 0.00 0.00 76 1028.2
20260510125038 13 85 1.6 4.8 0.00 0.00 0.00 76 1028.2
20260510124035 13 121 0.0 3.2 0.00 0.00 0.00 76 1028.2
20260510123033 13 96 1.6 3.2 0.00 0.00 0.00 76 1028.4
20260510122030 13 102 1.6 4.8 0.00 0.00 0.00 76 1028.3
20260510121028 13 115 1.6 3.2 0.00 0.00 0.00 76 1028.3
20260510120026 13 121 0.0 3.2 0.00 0.00 0.00 76 1028.3
20260510115023 13 162 0.0 3.2 0.00 0.00 0.00 76 1028.2
20260510114021 13 181 0.0 3.2 0.00 0.00 0.00 76 1028.2
20260510113018 13 158 0.0 3.2 0.00 0.00 0.00 76 1028.1
20260510112016 13 144 0.0 3.2 0.00 0.00 0.00 76 1028.1
20260510111033 13 140 0.0 1.6 0.00 0.00 0.00 76 1028.0
20260510110031 13 151 1.6 3.2 0.00 0.00 0.00 75 1028.0
20260510105029 14 175 1.6 3.2 0.00 0.00 0.00 75 1027.9
20260510104027 14 151 0.0 1.6 0.00 0.00 0.00 74 1028.0
20260510103024 14 199 1.6 3.2 0.00 0.00 0.00 75 1028.0
20260510102042 13 188 1.6 3.2 0.00 0.00 0.00 76 1028.0
20260510101019 13 0.0 1.6 0.00 0.00 0.00 75 1027.9
20260510100017 14 172 0.0 1.6 0.00 0.00 0.00 73 1027.7
20260510095034 15 149 0.0 3.2 0.00 0.00 0.00 72 1027.8
20260510094032 15 167 1.6 3.2 0.00 0.00 0.00 70 1027.7
20260510093050 15 171 1.6 3.2 0.00 0.00 0.00 69 1027.7
20260510092027 16 179 3.2 4.8 0.00 0.00 0.00 69 1027.5
20260510091025 15 179 1.6 3.2 0.00 0.00 0.00 70 1027.4
20260510090043 15 198 1.6 3.2 0.00 0.00 0.00 70 1027.3
20260510085020 16 179 1.6 3.2 0.00 0.00 0.00 69 1027.3
20260510084018 16 175 3.2 3.2 0.00 0.00 0.00 69 1027.2
20260510083035 16 208 1.6 3.2 0.00 0.00 0.00 69 1027.0
20260510082033 16 187 1.6 3.2 0.00 0.00 0.00 68 1026.9
20260510081051 16 187 1.6 3.2 0.00 0.00 0.00 68 1026.9
20260510080028 16 197 1.6 3.2 0.00 0.00 0.00 68 1026.7
20260510075046 17 224 0.0 3.2 0.00 0.00 0.00 67 1026.6
20260510074023 17 224 0.0 3.2 0.00 0.00 0.00 65 1026.5
20260510073021 17 0.0 1.6 0.00 0.00 0.00 63 1026.5
20260510072018 18 198 0.0 3.2 0.00 0.00 0.00 61 1026.3
20260510071016 19 184 1.6 4.8 0.00 0.00 0.00 59 1026.3
20260510070054 19 184 1.6 3.2 0.00 0.00 0.00 57 1026.1
20260510065032 20 180 3.2 4.8 0.00 0.00 0.00 56 1026.1
20260510064029 20 171 3.2 4.8 0.00 0.00 0.00 56 1026.1
20260510063027 20 170 3.2 6.4 0.00 0.00 0.00 55 1025.9
20260510062024 20 176 3.2 8.0 0.00 0.00 0.00 54 1025.9
20260510061042 20 183 3.2 6.4 0.00 0.00 0.00 54 1025.9
20260510060020 20 175 4.8 9.7 0.00 0.00 0.00 54 1025.9
20260510055017 20 180 6.4 9.7 0.00 0.00 0.00 53 1025.8
20260510054035 21 204 3.2 8.0 0.00 0.00 0.00 52 1025.9
20260510053032 20 144 3.2 9.7 0.00 0.00 0.00 53 1025.8
20260510052030 21 173 3.2 9.7 0.00 0.00 0.00 52 1025.9
20260510051049 20 159 3.2 6.4 0.00 0.00 0.00 53 1025.8
20260510050045 20 171 4.8 8.0 0.00 0.00 0.00 54 1025.9
20260510045023 20 179 6.4 11.3 0.00 0.00 0.00 53 1025.8
20260510044020 21 126 3.2 8.0 0.00 0.00 0.00 53 1025.9
20260510043018 21 178 3.2 9.7 0.00 0.00 0.00 52 1026.0
20260510042035 21 189 3.2 8.0 0.00 0.00 0.00 53 1025.9
20260510041034 21 162 3.2 8.0 0.00 0.00 0.00 53 1026.1
20260510040031 20 152 3.2 6.4 0.00 0.00 0.00 55 1026.0
20260510035028 20 207 1.6 6.4 0.00 0.00 0.00 55 1026.2
20260510034026 20 158 3.2 9.7 0.00 0.00 0.00 55 1026.2
20260510033044 20 163 4.8 11.3 0.00 0.00 0.00 56 1026.3
20260510032022 20 197 4.8 9.7 0.00 0.00 0.00 56 1026.4
20260510031019 20 192 1.6 6.4 0.00 0.00 0.00 56 1026.5
20260510030016 20 133 1.6 8.0 0.00 0.00 0.00 56 1026.6
20260510025034 20 66 3.2 8.0 0.00 0.00 0.00 57 1026.8
20260510024032 19 169 4.8 9.7 0.00 0.00 0.00 58 1026.9
20260510023029 19 170 4.8 9.7 0.00 0.00 0.00 57 1027.1
20260510022027 19 162 4.8 9.7 0.00 0.00 0.00 58 1027.2
20260510021024 18 164 3.2 8.0 0.00 0.00 0.00 59 1027.4
20260510020042 18 125 3.2 8.0 0.00 0.00 0.00 59 1027.5
20260510015019 18 130 3.2 8.0 0.00 0.00 0.00 60 1027.7
20260510014017 18 163 6.4 11.3 0.00 0.00 0.00 61 1027.8
20260510013035 18 142 4.8 11.3 0.00 0.00 0.00 61 1027.9
20260510012032 18 149 3.2 8.0 0.00 0.00 0.00 61 1028.0
20260510011050 18 163 1.6 6.4 0.00 0.00 0.00 61 1028.1
20260510010028 17 139 1.6 4.8 0.00 0.00 0.00 64 1028.1
20260510005025 17 155 4.8 11.3 0.00 0.00 0.00 65 1028.2
20260510004023 17 168 1.6 4.8 0.00 0.00 0.00 65 1028.3
20260510003021 16 44 1.6 6.4 0.00 0.00 0.00 67 1028.3
20260510002018 16 110 3.2 6.4 0.00 0.00 0.00 69 1028.3
20260510001036 15 99 4.8 9.7 0.00 0.00 0.00 70 1028.4
20260510000033 16 57 3.2 6.4 0.00 0.00 0.00 70 1028.3
20260509235031 15 69 4.8 6.4 0.00 0.00 0.00 72 1028.2
20260509234029 14 57 3.2 8.0 0.00 0.00 0.00 74 1028.3
20260509233046 14 77 3.2 6.4 0.00 0.00 0.00 75 1028.2
20260509232025 14 109 1.6 4.8 0.00 0.00 0.00 76 1028.3
20260509231041 13 93 1.6 4.8 0.00 0.00 0.00 78 1028.2
20260509230019 12 131 1.6 4.8 0.00 0.00 0.00 80 1028.1
20260509225016 12 95 1.6 4.8 0.00 0.00 0.00 81 1027.9
20260509224034 11 106 1.6 4.8 0.00 0.00 0.00 82 1027.8
20260509223052 11 122 1.6 4.8 0.00 0.00 0.00 83 1027.5
20260509222035 11 85 0.0 3.2 0.00 0.00 0.00 85 1027.5
20260509221027 10 18 3.2 4.8 0.00 0.00 0.00 90 1027.4
20260509220024 9 16 1.6 3.2 0.00 0.00 0.00 95 1027.2
20260509215022 8 130 1.6 4.8 0.00 0.00 0.00 96 1027.1
20260509214020 7 105 1.6 4.8 0.00 0.00 0.00 96 1027.1
20260509213017 7 93 0.0 3.2 0.00 0.00 0.00 96 1027.0
20260509212035 7 80 0.0 3.2 0.00 0.00 0.00 96 1027.0
20260509211032 7 124 0.0 3.2 0.00 0.00 0.00 96 1026.9
20260509210030 6 132 1.6 3.2 0.00 0.00 0.00 96 1026.9
20260509205028 6 158 0.0 3.2 0.00 0.00 0.00 96 1026.9
20260509204045 7 195 1.6 4.8 0.00 0.00 0.00 96 1026.7
20260509203023 7 167 3.2 4.8 0.00 0.00 0.00 95 1026.6
20260509202041 7 187 1.6 3.2 0.00 0.00 0.00 95 1026.6
20260509201038 7 186 3.2 4.8 0.00 0.00 0.00 95 1026.4
20260509200056 7 160 3.2 4.8 0.00 0.00 0.00 95 1026.3
20260509195033 6 175 0.0 3.2 0.00 0.00 0.00 95 1026.1
20260509194112 7 49 0.0 3.2 0.00 0.00 0.00 94 1026.1
20260509193029 7 41 0.0 3.2 0.00 0.00 0.00 94 1026.0